This demonstration page uses our WeatherBlox Daily Observations layout. Learn more.

39.92423, -83.80882

Hourly Observations for July 7, 2016

Temp ( °F °C ) Dew Point ( °F °C ) Humidity (%) Winds ( mph kmh ) Pressure ( in mb ) Visibility ( mi km ) Precip ( " mm )
12:56 am 00:56 Clear 72 22.2 72 22.2 100 100 SSW 6 9 29.88 1012 10 16.0934 0 0
1:56 am 01:56 Clear 71 21.6 71 21.6 100 100 SSW 3 6 29.88 1012 10 16.0934 0 0
2:56 am 02:56 Clear 71 21.6 71 21.6 100 100 SSW 5 7 29.87 1012 10 16.0934 0 0
3:56 am 03:56 Clear with Mist and Fog 71 21.6 71 21.6 100 100 SSW 6 9 29.85 1011 6 9.65604 0 0
4:33 am 04:33 Mostly Clear with Mist and Fog 72 22 72 22 100 100 SSW 9 15 29.85 1011 6 9.65604 0 0
4:56 am 04:56 Clear with Mist and Fog 71 21.6 71 21.6 100 100 SSW 8 13 29.86 1011 5 8.0467 0 0
5:56 am 05:56 Clear with Mist and Fog 70 21.1 70 21.1 100 100 SSW 6 9 29.86 1011 4 6.43736 0 0
6:56 am 06:56 Partly Cloudy with Mist and Fog 70 21.1 70 21.1 100 100 SSW 7 11 29.88 1012 4 6.43736 0 0
6:59 am 06:59 Mostly Cloudy with Mist and Fog 70 21 70 21 100 100 SSW 7 11 29.88 1012 4 6.43736 0 0
7:16 am 07:16 Cloudy with Mist and Fog 70 21 70 21 100 100 SW 6 9 29.88 1012 5 8.0467 0 0
7:40 am 07:40 Cloudy with Mist and Fog 72 22 72 22 100 100 SW 9 15 29.88 1012 5 8.0467 0 0
7:56 am 07:56 Cloudy with Mist and Fog 71 21.6 71 21.6 100 100 SW 8 13 29.89 1012 6 9.65604 0 0
8:56 am 08:56 Cloudy with Mist and Fog 72 22.2 72 22.2 100 100 WSW 7 11 29.91 1013 5 8.0467 0 0
9:56 am 09:56 Cloudy with Mist and Fog 73 22.7 73 22.7 100 100 SW 7 11 29.91 1013 5 8.0467 0 0
10:21 am 10:21 Cloudy 75 24 73 23 94 94 WSW 8 13 29.91 1013 8 12.87472 0 0
10:56 am 10:56 Cloudy 77 25 74 23.3 90 90 WSW 9 15 29.91 1013 10 16.0934 0 0
11:24 am 11:24 Cloudy 79 26 73 23 84 84 WSW 9 15 29.88 1012 10 16.0934 0 0
11:56 am 11:56 Cloudy 79 26.1 73 22.7 82 82 W 8 13 29.9 1013 10 16.0934 0 0
12:47 pm 12:47 Partly Cloudy 81 27 73 23 79 79 WSW 8 13 29.88 1012 10 16.0934 0 0
12:56 pm 12:56 Mostly Sunny 81 27.2 73 22.7 76 76 W 7 11 29.9 1013 10 16.0934 0 0
1:56 pm 13:56 Partly Cloudy 84 28.8 74 23.3 72 72 W 7 11 29.9 1013 10 16.0934 0 0
2:56 pm 14:56 Hazy 85 29.4 73 22.7 67 67 SW 8 13 29.89 1012 5 8.0467 0 0
3:25 pm 15:25 Mostly Cloudy 84 29 73 23 70 70 WSW 13 20 29.88 1012 10 16.0934 0 0
3:32 pm 15:32 Mostly Cloudy 84 29 73 23 70 70 SW 9 15 29.85 1011 10 16.0934 0 0
3:56 pm 15:56 Partly Cloudy 85 29.4 74 23.3 70 70 SW 13 20 29.9 1012 10 16.0934 0 0
4:56 pm 16:56 Sunny 86 30 73 22.7 65 65 SW 8 13 29.87 1011 10 16.0934 0 0
5:56 pm 17:56 Mostly Cloudy 85 29.4 74 23.3 70 70 SSW 10 17 29.87 1012 10 16.0934 0 0
6:38 pm 18:38 Partly Cloudy 84 29 73 23 70 70 SSW 9 15 29.85 1011 10 16.0934 0 0
6:56 pm 18:56 Sunny 84 28.8 73 22.7 70 70 SSW 10 17 29.86 1011 10 16.0934 0 0
7:56 pm 19:56 Sunny 81 27.2 73 22.7 76 76 SSW 7 11 29.87 1012 10 16.0934 0 0
8:56 pm 20:56 Sunny 78 25.5 73 22.7 85 85 SSW 6 9 29.86 1011 10 16.0934 0 0
9:56 pm 21:56 Clear 76 24.4 72 22.2 88 88 SW 6 9 29.88 1012 10 16.0934 0 0
10:56 pm 22:56 Clear 75 23.8 72 22.2 91 91 S 6 9 29.89 1012 10 16.0934 0 0
11:56 pm 23:56 Clear 74 23.3 72 22.2 94 94 VRB 5 7 29.88 1012 10 16.0934 0 0

Powered by AerisWeather